SCP
0 0 0 0 0 0 0 0 0 0 0 0 0 0 0 0 0 0 0 0 0 0 0 0 0 0 0 0 0 0 0 0 0 0 0 0 0 0 0 0 0 0 0 0
0 0 0 0 0 0 0 0 0 0 0 0 0 0 0 0 0 0 0 0 0 0 0 0 0 0 0 0 0 0 0 0 0 0 0 0 0 0 0 0 0 0 0 0
0 0 0 0 0 0 0 0 0 0 0 0 0 0 0 0 0 0 0 0 0 0 0 0 0 0 0 0 0 0 0 0 0 0 0 0 0 0 0 0 0 0 0 0
0 0 0 0 0 0 0 0 0 0 0 0 0 0 0 0 0 0 0 0 0 0 0 0 0 0 0 0 0 0 0 0 0 0 0 0 0 0 0 0 0 0 0 0
0 0 0 0 0 0 0 0 0 0 0 0 0 0 0 0 0 0 0 0 0 0 0 0 0 0 0 0 0 0 0 0 0 0 0 0 0 0 0 0 0 0 0 0
0 0 0 0 0 0 0 0 0 0 0 0 0 0 0 0 0 0 0 0 0 0 0 0 0 0 0 0 0 0 0 0 0 0 0 0 0 0 0 0 0 0 0 0
0 0 0 0 0 0 0 0 0 0 0 0 0 0 0 0 0 0 0 0 0 0 0 0 0 0 0 0 0 0 0 0 0 0 0 0 0 0 0 0 0 0 0 0
0 0 0 0 0 0 0 0 0 0 0 0 0 0 0 0 0 0 0 0 0 0 0 0 0 0 0 0 0 0 0 0 0 0 0 0 0 0 0 0 0 0 0 0
0 0 0 0 0 0 0 0 0 0 0 0 0 0 0 0 0 0 0 0 0 0 0 0 0 0 0 0 0 0 0 0 0 0 0 0 0 0 0 0 0 0 0 0
0 0 0 0 0 0 0 0 0 0 0 0 0 0 0 0 0 0 0 0 0 0 0 0 0 0 0 0 0 0 0 0 0 0 0 0 0 0 0 0 0 0 0 0
0 0 0 0 0 0 0 0 0 0 0 0 0 0 0 0 0 0 0 0 0 0 0 0 0 0 0 0 0 0 0 0 0 0 0 0 0 0 0 0 0 0 0 0
0 0 0 0 0 0 0 0 0 0 0 0 0 0 0 0 0 0 0 0 0 0 0 0 0 0 0 0 0 0 0 0 0 0 0 0 0 0 0 0 0 0 0 0
0 0 0 0 0 0 0 0 0 0 0 0 0 0 0 0 0 0 0 0 0 0 0 0 0 0 0 0 0 0 0 0 0 0 0 0 0 0 0 0 0 0 0 0
0 0 0 0 0 0 0 0 0 0 0 0 0 0 0 0 0 0 0 0 0 0 0 0 0 0 0 0 0 0 0 0 0 0 0 0 0 0 0 0 0 0 0 0
0 0 0 0 0 0 0 0 0 0 0 0 0 0 0 0 0 0 0 0 0 0 0 0 0 0 0 0 0 0 0 0 0 0 0 0 0 0 0 0 0 0 0 0
0 0 0 0 0 0 0 0 0 0 0 0 0 0 0 0 0 0 0 0 0 0 0 0 0 0 0 0 0 0 0 0 0 0 0 0 0 0 0 0 0 0 0 0
0 0 0 0 0 0 0 0 0 0 0 0 0 0 0 0 0 0 0 0 0 0 0 0 0 0 0 0 0 0 0 0 0 0 0 0 0 0 0 0 0 0 0 0
0 0 0 0 0 0 0 0 0 0 0 0 0 0 0 0 0 0 0 0 0 0 0 0 0 0 0 0 0 0 0 0 0 0 0 0 0 0 0 0 0 0 0 0
0 0 0 0 0 0 0 0 0 0 0 0 0 0 0 0 0 0 0 0 0 0 0 0 0 0 0 0 0 0 0 0 0 0 0 0 0 0 0 0 0 0 0 0
0 0 0 0 0 0 0 0 0 0 0 0 0 0 0 0 0 0 0 0 0 0 0 0 0 0 0 0 0 0 0 0 0 0 0 0 0 0 0 0 0 0 0 0
0 0 0 0 0 0 0 0 0 0 0 0 0 0 0 0 0 0 0 0 0 0 0 0 0 0 0 0 0 0 0 0 0 0 0 0 0 0 0 0 0 0 0 0
0 0 0 0 0 0 0 0 0 0 0 0 0 0 0 0 0 0 0 0 0 0 0 0 0 0 0 0 0 0 0 0 0 0 0 0 0 0 0 0 0 0 0 0
0 0 0 0 0 0 0 0 0 0 0 0 0 0 0 0 0 0 0 0 0 0 0 0 0 0 0 0 0 0 0 0 0 0 0 0 0 0 0 0 0 0 0 0
0 0 0 0 0 0 0 0 0 0 0 0 0 0 0 0 0 0 0 0 0 0 0 0 0 0 0 0 0 0 0 0 0 0 0 0 0 0 0 0 0 0 0 0
0 0 0 0 0 0 0 0 0 0 0 0 0 0 0 0 0 0 0 0 0 0 0 0 0 0 0 0 0 0 0 0 0 0 0 0 0 0 0 0 0 0 0 0
0 0 0 0 0 0 0 0 0 0 0 0 0 0 0 0 0 0 0 0 0 0 0 0 0 0 0 0 0 0 0 0 0 0 0 0 0 0 0 0 0 0 0 0
Wind_Speed
11 14 19 22 24 20 18 20 20 18 13 15 20 22 20 17 16 18 18 18 18 18 17 16 17 17 17 18 19 20 20 19 16 13 13 12 12 11 10 10 12 13 13 13
12 21 23 20 20 19 20 20 20 14 11 13 17 21 20 20 20 19 20 20 20 18 16 15 15 16 18 20 20 21 21 20 19 15 14 12 12 10 10 9 11 13 14 13
21 16 17 19 20 21 21 21 20 14 10 11 11 18 21 20 20 20 20 21 21 19 19 18 17 17 18 19 21 19 22 22 21 19 13 10 9 8 9 11 11 13 14 14
19 17 17 21 22 21 20 19 16 15 13 11 13 14 17 18 19 21 21 21 21 19 18 17 16 17 18 19 18 20 21 21 21 20 16 17 14 13 15 12 11 13 14 14
13 14 18 22 23 21 14 12 14 15 15 14 14 14 13 13 18 21 21 21 20 19 18 17 16 16 16 16 16 17 19 20 21 20 20 19 16 14 11 12 13 13 13 14
14 12 15 17 17 16 10 8 7 9 10 17 21 18 14 13 18 17 17 18 18 17 16 15 13 12 12 13 14 15 18 19 20 21 20 20 20 17 14 15 13 12 10 11
11 12 12 13 14 12 12 11 8 10 12 14 15 17 15 12 14 15 15 14 14 14 14 14 14 13 13 13 14 15 18 19 20 21 20 20 20 18 17 15 14 13 10 10
10 11 11 11 15 14 18 18 12 10 12 11 12 16 13 12 11 12 12 11 12 13 13 13 13 12 12 13 14 16 17 18 19 20 19 19 18 13 12 14 12 12 10 11
7 9 9 11 11 15 16 17 12 7 7 9 11 11 11 9 12 13 14 13 13 13 12 12 11 11 12 13 14 15 17 17 18 18 18 17 17 15 13 13 13 10 10 9
5 7 8 8 8 12 14 12 8 9 10 11 11 13 11 13 17 16 16 15 14 12 11 11 10 10 10 10 11 13 14 15 16 16 15 12 15 15 13 12 13 12 11 10
4 5 6 8 11 13 14 15 10 9 9 10 10 10 9 13 14 16 16 15 14 13 12 10 9 9 9 9 10 12 12 13 13 14 14 14 13 13 13 11 12 11 11 11
4 4 6 10 9 9 12 14 14 12 10 10 9 7 4 8 9 10 10 10 10 10 9 9 9 9 10 10 11 11 11 12 12 13 13 13 12 12 12 12 11 11 10 10
3 4 4 4 3 4 7 10 13 12 10 11 12 9 3 4 5 6 7 8 8 9 9 9 9 9 10 10 10 11 11 11 11 12 12 12 12 12 12 11 10 10 10 9
5 5 7 8 5 6 10 13 14 13 12 14 18 14 7 5 6 6 6 7 8 9 9 9 9 9 10 10 10 11 11 11 11 12 12 12 12 12 11 10 10 9 9 9
4 7 9 12 10 11 14 17 17 19 18 17 19 18 13 8 6 5 5 7 8 9 9 10 10 10 10 10 10 10 11 11 11 12 12 11 11 10 10 10 9 9 8 8
4 6 7 11 11 11 15 18 20 22 22 22 19 19 12 9 5 4 6 8 9 10 10 10 10 11 11 12 12 11 12 12 12 12 11 11 11 10 10 10 9 9 9 8
5 4 5 7 8 9 14 17 20 21 22 22 22 17 9 11 11 9 8 8 9 9 10 11 11 11 11 12 12 13 13 12 12 12 11 11 11 11 10 10 10 10 9 9
9 7 5 5 6 12 9 8 12 17 18 18 18 11 11 13 14 11 8 8 8 7 8 9 10 10 10 10 11 12 12 13 12 12 12 12 12 11 11 10 10 10 9 8
15 9 6 5 7 11 9 8 12 15 15 12 14 13 11 10 11 12 9 9 9 8 8 9 9 9 10 11 12 13 13 13 13 13 13 12 12 12 12 11 11 9 9 8
14 12 8 7 8 10 5 3 6 10 13 10 12 13 11 9 12 12 8 9 10 9 7 7 7 9 10 12 13 14 14 14 14 14 13 12 12 13 12 12 11 9 9 8
9 10 13 12 10 10 6 3 6 10 7 5 10 12 12 14 15 11 8 9 9 10 8 7 8 9 10 12 14 15 14 14 13 13 13 12 12 12 12 11 10 10 9 9
9 8 11 10 12 11 2 3 6 4 4 3 6 9 11 14 15 12 9 8 7 7 8 8 8 8 9 13 15 15 14 13 13 14 13 13 12 11 10 12 11 10 10 10
9 9 6 9 9 5 2 4 5 6 6 7 7 8 9 11 13 11 10 9 8 8 8 8 9 9 10 12 14 15 14 15 15 15 14 13 13 11 11 11 11 10 9 7
8 8 9 10 12 12 10 10 9 8 9 9 10 10 9 10 11 10 9 8 8 8 8 8 9 10 10 11 12 13 15 16 16 16 15 13 13 11 10 8 8 8 7 7
10 7 10 14 14 14 14 11 12 12 12 11 11 11 10 10 10 9 8 8 7 7 7 9 10 11 11 12 12 14 16 17 17 16 14 13 11 11 10 8 6 6 6 6
14 14 14 14 12 11 14 14 14 14 14 13 12 12 11 10 10 9 8 7 7 7 8 9 10 11 12 13 13 15 16 17 18 15 14 11 10 10 9 10 9 10 9 11
Wind_Direction
209 215 215 210 213 225 224 223 224 224 210 212 227 235 235 229 225 232 232 229 226 226 226 219 214 207 202 199 197 195 194 193 189 188 191 193 195 195 198 201 201 199 199 197
214 225 223 220 219 223 226 226 226 227 217 223 236 242 241 237 233 233 235 232 230 228 223 215 211 205 202 200 199 198 196 194 192 193 194 196 195 196 197 198 204 203 202 199
220 226 219 215 216 217 222 222 221 219 209 225 246 249 240 236 234 234 236 236 234 230 227 217 209 205 203 202 200 199 198 196 195 193 190 187 188 190 195 199 200 204 203 201
232 230 222 217 217 215 222 221 222 219 217 223 221 251 238 229 227 229 230 230 231 228 228 225 215 207 204 204 201 201 198 197 194 191 190 188 190 194 198 196 197 199 203 203
226 220 217 219 217 216 223 212 217 224 230 239 226 245 248 222 229 227 226 226 226 225 224 223 218 212 207 202 198 199 197 196 193 192 193 194 199 201 196 194 196 197 199 203
241 235 224 223 220 217 207 191 204 223 228 237 227 231 251 222 227 226 223 222 221 220 219 219 215 207 203 197 194 195 195 195 193 193 195 198 200 199 193 192 192 193 195 199
235 235 224 212 204 202 194 181 187 197 209 229 214 223 242 232 225 225 222 218 215 213 211 208 205 200 195 190 190 191 192 193 192 193 196 199 202 200 198 193 194 191 192 195
214 225 208 201 200 197 200 198 201 200 208 213 204 226 237 230 226 229 230 228 219 212 208 205 202 197 193 189 187 187 190 191 190 192 196 199 200 199 200 198 194 194 196 198
224 227 206 211 208 199 197 210 226 251 231 219 210 229 245 234 228 225 225 223 218 211 205 201 197 195 192 188 187 186 186 187 189 191 193 196 196 197 198 196 196 196 196 194
241 246 220 203 201 211 208 194 192 209 212 221 220 225 225 206 213 214 216 217 214 207 202 197 194 193 191 186 182 183 184 184 185 187 189 191 193 195 195 192 194 194 194 190
259 245 217 199 204 194 191 195 197 202 232 230 227 228 216 217 211 210 211 211 206 202 195 191 186 182 176 173 174 176 178 178 180 183 185 187 189 190 190 191 193 193 191 187
237 249 233 224 226 220 207 197 195 202 204 227 241 239 177 218 217 214 210 204 199 194 186 179 173 169 169 169 171 171 174 175 176 177 179 181 181 183 186 188 189 188 186 182
245 235 240 215 192 190 212 209 210 225 223 217 225 230 165 209 219 214 208 194 183 177 171 167 166 170 170 168 168 168 170 170 170 171 173 173 176 178 181 182 181 180 179 175
278 237 233 237 239 211 228 232 226 222 221 221 225 233 227 224 221 211 205 192 180 173 168 168 169 169 167 166 166 166 165 164 164 166 169 172 174 175 175 174 173 173 173 172
287 253 249 259 266 242 236 233 227 227 228 228 229 232 233 237 236 217 190 179 177 174 173 174 172 169 167 165 165 165 163 163 163 164 166 168 166 165 163 163 163 163 164 165
283 268 266 262 255 250 249 235 226 228 230 235 241 241 233 236 235 216 187 177 182 182 181 179 175 173 173 171 168 166 165 164 164 164 163 159 157 157 157 157 155 155 155 155
250 258 265 263 257 257 244 228 219 220 225 228 233 237 228 230 232 225 204 193 193 189 186 187 187 185 179 175 171 169 165 161 163 162 159 159 156 155 155 152 152 154 154 152
232 241 249 262 250 234 234 219 223 228 230 234 237 238 227 231 236 231 220 210 207 197 194 194 193 187 179 170 166 161 159 161 162 161 161 160 158 155 153 154 154 153 152 151
219 218 231 236 242 257 255 232 218 222 229 233 237 237 241 246 246 236 232 233 226 213 206 200 194 183 172 168 162 157 160 162 163 165 164 163 160 156 155 156 154 150 147 143
207 211 228 231 238 242 248 231 230 221 236 236 237 238 238 233 233 234 244 248 243 235 217 199 183 174 171 168 161 161 164 167 170 168 163 160 159 157 156 153 147 143 140 135
191 202 220 231 243 261 283 272 177 200 236 257 236 239 235 228 237 256 252 243 242 234 219 193 178 178 175 166 165 167 168 173 165 156 153 153 155 154 150 144 142 140 134 131
212 208 212 218 230 244 282 186 193 252 310 294 253 247 242 242 249 255 250 243 238 231 211 191 183 179 170 168 169 169 171 160 150 148 148 148 148 143 143 140 138 139 137 134
231 229 229 226 239 273 260 245 278 301 291 296 291 278 264 256 254 256 252 247 240 229 209 192 184 173 170 174 174 168 159 150 148 146 145 142 140 140 143 143 141 140 141 139
246 248 248 252 255 266 273 278 282 288 295 300 300 295 280 266 265 262 252 244 238 228 210 187 177 174 172 173 174 160 150 151 148 145 142 141 139 137 136 134 139 142 146 145
245 242 250 255 264 275 269 268 281 294 300 302 304 295 282 271 270 264 252 243 234 220 201 187 183 178 170 165 160 153 153 151 146 142 140 140 137 136 132 125 123 134 132 144
234 236 242 250 259 267 274 278 286 290 291 292 295 295 289 274 269 265 254 242 227 208 192 185 180 169 162 157 155 156 156 152 146 143 143 141 139 136 133 126 107 82 101 106